Weather History for Swansboro, NC

Change the Weather History Date:

Friday, February 1, 2013

  Actual Average (KNKT) Record (KNKT)
Temperature  
Mean Temperature 40 °F -  
Max Temperature 53 °F 53 °F 75 °F (2002)
Min Temperature 27 °F 34 °F 23 °F (2004)
Degree Days  
Heating Degree Days 25    
Moisture  
Dew Point 17 °F    
Average Humidity 38    
Maximum Humidity 53    
Minimum Humidity 16    
Precipitation  
Precipitation 0.00 in - - ()
Sea Level Pressure  
Sea Level Pressure 30.19 in    
Wind  
Wind Speed 10 mph (WNW)    
Max Wind Speed 23 mph    
Max Gust Speed 36 mph    
Visibility 10 miles    
Events      
Averages and records for this station are not official NWS values.
T = Trace of Precipitation, MM = Missing Value Source: NWS Daily Summary

Daily Weather History Graph

Daily Weather History Graph

Search for Another Location

Airport:

Trip Planner

Search our weather history database for the weather conditions in past years. The results will help you decide how hot, cold, wet, or windy it might be!

Date:

Astronomy

Feb. 01, 2013 Rise Set
Actual Time 7:06 AM EST 5:37 PM EST
Civil Twilight 6:39 AM EST 6:04 PM EST
Nautical Twilight 6:09 AM EST 6:34 PM EST
Astronomical Twilight 5:39 AM EST 7:04 PM EST
Moon 11:24 PM EST (2/1) 9:54 AM EST (2/1)
Length of Visible Light 11h 24m
Length of Day
10h 31m
Waning Gibbous, 70% of the Moon is Illuminated
Feb 1
Waning Gibbous
Feb 3
Last Quarter
Feb 10
New
Feb 17
First Quarter
Feb 25
Full

Hourly Weather History & Observations

Time (EST) Temp. Windchill Dew Point Humidity Pressure Visibility Wind Dir Wind Speed Gust Speed Precip Events Conditions
12:57 AM 45.0 °F 40.6 °F 24.1 °F 44% 30.10 in 10.0 mi West 8.1 mph - N/A   Clear
1:57 AM 45.0 °F 39.7 °F 24.1 °F 44% 30.10 in 10.0 mi West 10.4 mph - N/A   Clear
2:57 AM 44.1 °F 40.8 °F 24.1 °F 45% 30.08 in 10.0 mi West 5.8 mph - N/A   Clear
3:57 AM 44.1 °F 39.5 °F 24.1 °F 45% 30.07 in 10.0 mi WSW 8.1 mph - N/A   Clear
4:57 AM 44.1 °F 39.5 °F 27.0 °F 51% 30.06 in 10.0 mi WSW 8.1 mph - N/A   Clear
5:57 AM 44.1 °F 37.7 °F 27.0 °F 51% 30.05 in 10.0 mi WSW 12.7 mph 18.4 mph N/A   Clear
6:57 AM 46.0 °F 39.6 °F 28.0 °F 50% 30.04 in 10.0 mi WSW 15.0 mph 24.2 mph N/A   Clear
7:57 AM 46.9 °F - 28.0 °F 48% 30.04 in 10.0 mi WSW 12.7 mph 23.0 mph N/A   Scattered Clouds
8:57 AM 50.0 °F - 25.0 °F 38% 30.06 in 10.0 mi WSW 12.7 mph 25.3 mph N/A   Scattered Clouds
9:57 AM 52.0 °F - 26.1 °F 37% 30.07 in 10.0 mi West 12.7 mph 32.2 mph N/A   Scattered Clouds
10:57 AM 53.1 °F - 27.0 °F 37% 30.10 in 10.0 mi WNW 12.7 mph 26.5 mph N/A   Mostly Cloudy
11:57 AM 48.0 °F - 27.0 °F 44% 30.14 in 10.0 mi NNW 16.1 mph 31.1 mph N/A   Scattered Clouds
12:57 PM 48.0 °F - 17.1 °F 29% 30.16 in 10.0 mi WNW 20.7 mph 34.5 mph N/A   Mostly Cloudy
1:57 PM 46.9 °F - 1.9 °F 16% 30.18 in 9.0 mi WNW 23.0 mph 35.7 mph N/A   Partly Cloudy
2:57 PM 46.0 °F 41.0 °F 3.0 °F 17% 30.20 in 10.0 mi NW 10.4 mph 20.7 mph N/A   Partly Cloudy
3:57 PM 45.0 °F 38.9 °F 3.0 °F 18% 30.23 in 10.0 mi NW 12.7 mph 21.9 mph N/A   Clear
4:57 PM 43.0 °F 36.4 °F 5.0 °F 21% 30.27 in 10.0 mi NW 12.7 mph 19.6 mph N/A   Clear
5:57 PM 39.0 °F 35.7 °F 6.1 °F 26% 30.29 in 10.0 mi NNW 4.6 mph - N/A   Clear
6:57 PM 35.1 °F - 10.9 °F 37% 30.33 in 10.0 mi Calm Calm - N/A   Clear
7:57 PM 33.1 °F - 10.9 °F 40% 30.36 in 10.0 mi Calm Calm - N/A   Clear
8:57 PM 30.9 °F - 8.1 °F 38% 30.38 in 10.0 mi Calm Calm - N/A   Clear
9:57 PM 27.0 °F 21.6 °F 12.0 °F 53% 30.40 in 10.0 mi NNW 4.6 mph - N/A   Clear
10:57 PM 28.9 °F - 9.0 °F 43% 30.41 in 10.0 mi Calm Calm - N/A   Clear
11:57 PM 28.9 °F 22.8 °F 9.0 °F 43% 30.41 in 10.0 mi North 5.8 mph - N/A   Clear